TimeCST,TemperatureF,Dew PointF,Humidity,Sea Level PressureIn,VisibilityMPH,Wind Direction,Wind SpeedMPH,Gust SpeedMPH,PrecipitationIn,Events,Conditions,WindDirDegrees,DateUTC
12:00 AM,68,65,89,29.80,6,NE,3.5,,,,Scattered Clouds,40,2013-07-06 06:00:00
12:00 AM,68.0,66.2,94,29.99,6.2,NE,3.5,-,N/A,Fog,Patches of Fog,40,2013-07-06 06:00:00
1:00 AM,68.0,62.6,83,29.95,6.2,NNE,4.6,-,N/A,,Partly Cloudy,30,2013-07-06 07:00:00
2:00 AM,69.8,62.6,78,29.96,6.2,East,2.3,-,N/A,,Scattered Clouds,90,2013-07-06 08:00:00
3:00 AM,66.2,64.4,94,29.98,6.2,West,2.3,-,N/A,,Scattered Clouds,270,2013-07-06 09:00:00
4:00 AM,66.2,62.6,88,29.96,6.2,Calm,Calm,-,N/A,,Scattered Clouds,0,2013-07-06 10:00:00
5:00 AM,66.2,60.8,83,29.94,6.2,ENE,4.6,-,N/A,,Scattered Clouds,70,2013-07-06 11:00:00
6:00 AM,69.8,60.8,73,29.96,6.2,East,4.6,-,N/A,,Mostly Cloudy,100,2013-07-06 12:00:00
7:00 AM,71.6,60.8,69,29.98,-9999.0,East,5.8,-,N/A,,Clear,80,2013-07-06 13:00:00
7:30 AM,69.8,64.4,83,30.01,-9999.0,WSW,6.9,-,N/A,,Clear,250,2013-07-06 13:30:00
8:00 AM,71.6,64.4,78,30.01,-9999.0,WNW,13.8,-,N/A,,Clear,290,2013-07-06 14:00:00
9:00 AM,74,65,67,29.87,12,West,11.5,,,,Overcast,270,2013-07-06 15:00:00
9:00 AM,75.2,64.4,69,30.04,6.2,West,11.5,-,N/A,,Mostly Cloudy,270,2013-07-06 15:00:00
10:00 AM,75.2,64.4,69,30.02,6.2,West,11.5,-,N/A,,Mostly Cloudy,260,2013-07-06 16:00:00
11:00 AM,78.8,64.4,61,30.00,6.2,SW,9.2,-,N/A,,Mostly Cloudy,220,2013-07-06 17:00:00
12:00 PM,81,64,48,29.81,12,WSW,10.4,,,,Scattered Clouds,250,2013-07-06 18:00:00
12:00 PM,80.6,64.4,58,29.98,6.2,WSW,10.4,-,N/A,,Mostly Cloudy,250,2013-07-06 18:00:00
1:00 PM,78.8,66.2,65,29.96,6.2,WSW,10.4,-,N/A,,Mostly Cloudy,250,2013-07-06 19:00:00
2:00 PM,80.6,68.0,65,29.94,6.2,SW,9.2,-,N/A,,Mostly Cloudy,230,2013-07-06 20:00:00
2:30 PM,77.0,68.0,74,29.93,6.2,WSW,11.5,-,N/A,Rain-Thunderstorm,Thunderstorms and Rain,240,2013-07-06 20:30:00
3:00 PM,75,69,75,29.75,7,West,9.2,,,Hail-Thunderstorm,Thunderstorms with Hail,260,2013-07-06 21:00:00
3:00 PM,75.2,68.0,78,10.13,6.2,West,9.2,-,N/A,Rain-Thunderstorm,Thunderstorms and Rain,260,2013-07-06 21:00:00
3:30 PM,69.8,68.0,94,29.93,4.3,SSW,9.2,-,N/A,Rain-Thunderstorm,Light Thunderstorms and Rain,200,2013-07-06 21:30:00
4:00 PM,69.8,68.0,94,29.92,3.1,SSW,8.1,-,N/A,Rain,Light Rain,200,2013-07-06 22:00:00
5:00 PM,69.8,68.0,94,29.95,3.1,SSW,5.8,-,N/A,Rain,Rain,210,2013-07-06 23:00:00
6:00 PM,68,67,96,29.83,3,WSW,5.8,,,Rain,Light Rain,240,2013-07-07 00:00:00
6:00 PM,68.0,68.0,100,29.98,3.1,WSW,5.8,-,N/A,Rain,Rain,240,2013-07-07 00:00:00
7:00 PM,68.0,68.0,100,29.98,6.2,NE,2.3,-,N/A,,Mostly Cloudy,50,2013-07-07 01:00:00
8:00 PM,69.8,68.0,94,29.98,-9999.0,ENE,3.5,-,N/A,,Clear,70,2013-07-07 02:00:00
9:00 PM,69.8,66.2,88,29.98,-9999.0,ENE,4.6,-,N/A,,Clear,70,2013-07-07 03:00:00
10:00 PM,69.8,62.6,78,30.00,-9999.0,East,4.6,-,N/A,,Clear,80,2013-07-07 04:00:00
11:00 PM,68.0,62.6,83,29.99,-9999.0,East,2.3,-,N/A,,Clear,80,2013-07-07 05:00:00